Regional Weather Roundup
Issued by NWS

Home | Current Version | Previous Version | Graphics & Text | Print | Product List | Glossary On
Versions: 1 2 3 4 5 6 7 8 9 10 11 12 13 14 15 16 17 18 19 20 21 22 23 24 25 26 27 28 29 30 31 32 33 34 35 36 37 38 39 40 41 42 43 44 45 46 47 48 49 50
000
ASUS45 KCYS 151910
RWRWY

WYOMING REGIONAL WEATHER ROUNDUP
NATIONAL WEATHER SERVICE CHEYENNE WY
1200 PM MST MON JAN 15 2018

NOTE:  "FAIR" INDICATES FEW OR NO CLOUDS BELOW 12,000 FEET
WITH NO SIGNIFICANT WEATHER AND/OR OBSTRUCTIONS TO VISIBILITY.

WYZ001-152000-
YELLOWSTONE NATIONAL PARK

CITY           SKY/WX    TMP DP  RH WIND       PRES   REMARKS
LK YELLOWSTONE   N/A     22  16  78 VRB6      30.37F WCI  14
W YELLOWSTONE  NOT AVBL

$$
WYZ002>013-054>058-071-098>099-152000-
NORTHERN WYOMING

CITY           SKY/WX    TMP DP  RH WIND       PRES   REMARKS
JACKSON        FOG       23  19  86 S3        30.39F VSB 1/4
CODY           PTSUNNY   27  15  61 CALM      30.51F
GREYBULL       FAIR      20   6  55 SE8       30.58F WCI  10
WORLAND        FAIR      20  11  68 NE5       30.56F WCI  13
SHERIDAN       FAIR       4  -3  73 CALM      30.64F
BUFFALO        FAIR       7   0  73 S5        30.54F WCI  -2
GILLETTE         N/A     -1  -6  79 CALM      30.61F
HULETT         CLOUDY     0  -6  78 MISG      30.63S
NEWCASTLE      FAIR       1  -8  66 NW17      30.57F WCI -19

$$
WYZ014>020-022>026-101>103-152000-
CENTRAL WYOMING

CITY           SKY/WX    TMP DP  RH WIND       PRES   REMARKS
BIG PINEY      CLOUDY    28  22  78 S12       30.38F WCI  18
PINEDALE       CLOUDY    27  23  86 CALM      30.38F
DUBOIS         CLOUDY   N/A N/A N/A SE6       30.39S HAZE
LANDER         CLOUDY    22  18  85 E6        30.47F WCI  14
RIVERTON       CLOUDY    23  14  68 SE7       30.47F WCI  15
CASPER         FAIR      10  -5  50 E8        30.52F WCI  -2
DOUGLAS        FAIR      14  -4  44 N15       30.54F WCI  -1

$$
WYZ021-027>030-104>119-152000-
SOUTHERN WYOMING

CITY           SKY/WX    TMP DP  RH WIND       PRES   REMARKS
EVANSTON       FAIR      34  26  72 NE9       30.32F WCI  27
FORT BRIDGER   FAIR      36  24  60 E10       30.37F WCI  29
ROCK SPRINGS   CLOUDY    24  16  71 E16       30.40F WCI  11
DIXON            N/A     32  15  50 N16G22    30.40S WCI  21
RAWLINS        FAIR      26  12  55 E7        30.38F WCI  18
SARATOGA       FAIR      27   5  39 N10G18    30.37F WCI  17
LARAMIE        FAIR      20   8  60 NW20G25   30.32F WCI   4
CHEYENNE       FAIR      14  -2  49 N24G31    30.37F WCI  -5
TORRINGTON     FAIR      15  -1  49 NW14      30.55F WCI   0

$$



USA.gov is the U.S. government's official web portal to all federal, state and local government web resources and services.